Location: Unspecified
(40.7945°N, 0.0000°E)
Time: 03:22:39
(UTC+00:00)

Altair - Pass Details

Date: 23 January 2021
Orbit: 1501 x 1682 km, 47.2° (Epoch: 01 March)

Event Time Altitude Azimuth Distance (km) Brightness Sun altitude
Rises 09:33:06 0° 289° (WNW) 4,933 9.7 19.5°
Reaches altitude 10° 09:36:19 10° 292° (WNW) 3,948 9.2 19.8°
Maximum altitude 09:46:30 69° 16° (NNE) 1,768 8.0 21.0°
Drops below altitude 10° 09:56:29 10° 100° (E) 3,880 10.4 22.1°
Sets 09:59:37 0° 103° (ESE) 4,845 10.8 22.5°
